When you browse on this site, cookies collect data to enhance your experience and personalize the content and advertising you see.
Visit our Privacy Policy to learn more. By continuing to use the site, you agree to this use of cookies and data.
  • In Spain
  • List of Countries
  • For 7 days
  • Water Temperature
  • Weather Map
  • Weather Widgets
  • user-avatar
    Login

    Hourly Weather Kyzylorda

    Today, 22 August, Thursday

    Time Temperature Precipitation Wind Pressure Humidity
    00:00 +29°C° 0 mm 4 mps 746 mmHg 22%
    01:00 +28°C° 0 mm 5 mps 746 mmHg 23%
    02:00 +27°C° 0 mm 4 mps 746 mmHg 26%
    03:00 +27°C° 0 mm 4 mps 746 mmHg 29%
    04:00 +26°C° 0 mm 4 mps 746 mmHg 31%
    05:00 +27°C° 0 mm 4 mps 746 mmHg 31%
    06:00 +28°C° 0 mm 4 mps 746 mmHg 31%
    07:00 +29°C° 0 mm 5 mps 746 mmHg 31%
    08:00 +32°C° 0 mm 6 mps 746 mmHg 29%
    09:00 +34°C° 0 mm 7 mps 747 mmHg 26%
    10:00 +36°C° 0 mm 7 mps 747 mmHg 24%
    11:00 +37°C° 0 mm 8 mps 747 mmHg 23%
    12:00 +38°C° 0 mm 8 mps 746 mmHg 22%
    13:00 +38°C° 0 mm 8 mps 746 mmHg 21%
    14:00 +38°C° 0 mm 8 mps 746 mmHg 21%
    15:00 +37°C° 0 mm 8 mps 746 mmHg 22%
    16:00 +37°C° 0 mm 8 mps 747 mmHg 22%
    17:00 +34°C° 0 mm 7 mps 747 mmHg 22%
    18:00 +32°C° 0 mm 6 mps 746 mmHg 23%
    19:00 +29°C° 0 mm 5 mps 746 mmHg 23%
    20:00 +28°C° 0 mm 5 mps 747 mmHg 24%
    21:00 +27°C° 0 mm 4 mps 747 mmHg 26%
    22:00 +25°C° 0 mm 4 mps 747 mmHg 28%
    23:00 +25°C° 0 mm 5 mps 747 mmHg 29%

    Tomorrow, 23 August, Friday

    Time Temperature Precipitation Wind Pressure Humidity
    00:00 +23°C° 0 mm 5 mps 747 mmHg 31%
    01:00 +22°C° 0 mm 5 mps 747 mmHg 32%
    02:00 +22°C° 0 mm 6 mps 747 mmHg 35%
    03:00 +21°C° 0 mm 6 mps 748 mmHg 37%
    04:00 +20°C° 0 mm 6 mps 748 mmHg 39%
    05:00 +21°C° 0 mm 6 mps 748 mmHg 39%
    06:00 +22°C° 0 mm 7 mps 749 mmHg 39%
    07:00 +23°C° 0 mm 7 mps 749 mmHg 40%
    08:00 +24°C° 0 mm 8 mps 749 mmHg 35%
    09:00 +26°C° 0 mm 8 mps 750 mmHg 31%
    10:00 +28°C° 0 mm 8 mps 750 mmHg 27%
    11:00 +29°C° 0 mm 8 mps 750 mmHg 25%
    12:00 +31°C° 0 mm 8 mps 750 mmHg 23%
    13:00 +32°C° 0 mm 8 mps 749 mmHg 20%
    14:00 +32°C° 0 mm 8 mps 749 mmHg 20%
    15:00 +32°C° 0 mm 8 mps 749 mmHg 20%
    16:00 +32°C° 0 mm 8 mps 749 mmHg 19%
    17:00 +29°C° 0 mm 7 mps 749 mmHg 21%
    18:00 +28°C° 0 mm 6 mps 749 mmHg 23%
    19:00 +26°C° 0 mm 5 mps 750 mmHg 25%
    20:00 +25°C° 0 mm 5 mps 750 mmHg 26%
    21:00 +23°C° 0 mm 5 mps 750 mmHg 27%
    22:00 +23°C° 0 mm 5 mps 750 mmHg 27%
    23:00 +22°C° 0 mm 5 mps 750 mmHg 28%

    Day after tomorrow, 24 August, Saturday

    Time Temperature Precipitation Wind Pressure Humidity
    00:00 +22°C° 0 mm 5 mps 750 mmHg 29%
    01:00 +21°C° 0 mm 5 mps 750 mmHg 30%
    02:00 +20°C° 0 mm 5 mps 750 mmHg 31%
    03:00 +20°C° 0 mm 4 mps 751 mmHg 32%
    04:00 +19°C° 0 mm 4 mps 751 mmHg 33%
    05:00 +21°C° 0 mm 5 mps 751 mmHg 31%
    06:00 +22°C° 0 mm 6 mps 751 mmHg 28%
    07:00 +24°C° 0 mm 7 mps 751 mmHg 25%
    08:00 +27°C° 0 mm 8 mps 751 mmHg 23%
    09:00 +29°C° 0 mm 8 mps 752 mmHg 21%
    10:00 +31°C° 0 mm 9 mps 752 mmHg 18%
    11:00 +33°C° 0 mm 9 mps 751 mmHg 17%
    12:00 +34°C° 0 mm 9 mps 751 mmHg 15%
    13:00 +35°C° 0 mm 9 mps 750 mmHg 13%
    14:00 +35°C° 0 mm 8 mps 750 mmHg 13%
    15:00 +35°C° 0 mm 8 mps 750 mmHg 13%
    16:00 +35°C° 0 mm 8 mps 750 mmHg 13%
    17:00 +33°C° 0 mm 7 mps 750 mmHg 15%
    18:00 +30°C° 0 mm 6 mps 750 mmHg 16%
    19:00 +28°C° 0 mm 5 mps 750 mmHg 18%
    20:00 +27°C° 0 mm 5 mps 750 mmHg 20%
    21:00 +26°C° 0 mm 5 mps 750 mmHg 21%
    22:00 +25°C° 0 mm 5 mps 750 mmHg 22%
    23:00 +23°C° 0 mm 5 mps 750 mmHg 23%

    25 August, Sunday

    Time Temperature Precipitation Wind Pressure Humidity
    00:00 +23°C° 0 mm 4 mps 749 mmHg 24%
    01:00 +22°C° 0 mm 4 mps 749 mmHg 25%
    02:00 +22°C° 0 mm 4 mps 749 mmHg 26%
    03:00 +21°C° 0 mm 4 mps 749 mmHg 27%
    04:00 +21°C° 0 mm 4 mps 749 mmHg 28%
    05:00 +22°C° 0 mm 5 mps 749 mmHg 26%
    06:00 +24°C° 0 mm 6 mps 749 mmHg 23%
    07:00 +27°C° 0 mm 6 mps 749 mmHg 21%
    08:00 +28°C° 0 mm 7 mps 749 mmHg 19%
    09:00 +31°C° 0 mm 8 mps 749 mmHg 16%
    10:00 +33°C° 0 mm 9 mps 749 mmHg 14%
    11:00 +34°C° 0 mm 9 mps 749 mmHg 13%
    12:00 +35°C° 0 mm 9 mps 748 mmHg 12%
    13:00 +37°C° 0 mm 9 mps 748 mmHg 10%
    14:00 +37°C° 0 mm 8 mps 747 mmHg 10%
    15:00 +37°C° 0 mm 8 mps 747 mmHg 10%
    16:00 +38°C° 0 mm 8 mps 747 mmHg 10%
    17:00 +34°C° 0 mm 7 mps 747 mmHg 11%
    18:00 +32°C° 0 mm 6 mps 747 mmHg 13%
    19:00 +29°C° 0 mm 5 mps 747 mmHg 15%
    20:00 +28°C° 0 mm 5 mps 747 mmHg 17%
    21:00 +27°C° 0 mm 5 mps 747 mmHg 18%
    22:00 +26°C° 0 mm 5 mps 747 mmHg 19%
    23:00 +26°C° 0 mm 5 mps 747 mmHg 20%

    26 August, Monday

    Time Temperature Precipitation Wind Pressure Humidity
    00:00 +25°C° 0 mm 5 mps 746 mmHg 21%
    01:00 +23°C° 0 mm 4 mps 746 mmHg 22%
    02:00 +23°C° 0 mm 4 mps 746 mmHg 24%
    03:00 +22°C° 0 mm 4 mps 746 mmHg 26%
    04:00 +22°C° 0 mm 5 mps 746 mmHg 28%
    05:00 +23°C° 0 mm 5 mps 746 mmHg 27%
    06:00 +26°C° 0 mm 6 mps 746 mmHg 25%
    07:00 +27°C° 0 mm 6 mps 746 mmHg 24%
    08:00 +29°C° 0 mm 7 mps 746 mmHg 21%
    09:00 +33°C° 0 mm 8 mps 746 mmHg 18%
    10:00 +35°C° 0 mm 8 mps 746 mmHg 16%
    11:00 +37°C° 0 mm 8 mps 745 mmHg 14%
    12:00 +38°C° 0 mm 8 mps 745 mmHg 13%
    13:00 +39°C° 0 mm 7 mps 745 mmHg 11%
    14:00 +39°C° 0 mm 7 mps 744 mmHg 11%
    15:00 +39°C° 0 mm 6 mps 744 mmHg 11%
    16:00 +39°C° 0 mm 6 mps 744 mmHg 11%
    17:00 +35°C° 0 mm 5 mps 744 mmHg 13%
    18:00 +33°C° 0 mm 5 mps 743 mmHg 16%
    19:00 +30°C° 0 mm 4 mps 743 mmHg 19%
    20:00 +29°C° 0 mm 4 mps 743 mmHg 20%
    21:00 +28°C° 0 mm 4 mps 743 mmHg 21%
    22:00 +28°C° 0 mm 4 mps 743 mmHg 22%
    23:00 +27°C° 0 mm 4 mps 743 mmHg 23%

    27 August, Tuesday

    Time Temperature Precipitation Wind Pressure Humidity
    00:00 +27°C° 0 mm 4 mps 743 mmHg 23%
    01:00 +27°C° 0 mm 3 mps 743 mmHg 23%
    02:00 +26°C° 0 mm 3 mps 743 mmHg 24%
    03:00 +25°C° 0 mm 3 mps 743 mmHg 25%
    04:00 +25°C° 0 mm 3 mps 743 mmHg 26%
    05:00 +26°C° 0 mm 3 mps 743 mmHg 24%
    06:00 +27°C° 0 mm 3 mps 743 mmHg 22%
    07:00 +29°C° 0 mm 4 mps 744 mmHg 20%
    08:00 +30°C° 0 mm 4 mps 744 mmHg 19%
    09:00 +33°C° 0 mm 5 mps 744 mmHg 17%
    10:00 +35°C° 0 mm 6 mps 744 mmHg 15%
    11:00 +35°C° 0 mm 7 mps 745 mmHg 16%
    12:00 +37°C° 0 mm 8 mps 745 mmHg 17%
    13:00 +37°C° 0 mm 9 mps 745 mmHg 18%
    14:00 +35°C° 0 mm 9 mps 745 mmHg 19%
    15:00 +34°C° 0 mm 10 mps 745 mmHg 21%
    16:00 +33°C° 0 mm 10 mps 745 mmHg 22%
    17:00 +29°C° 0 mm 9 mps 746 mmHg 22%
    18:00 +27°C° 0 mm 8 mps 747 mmHg 23%
    19:00 +24°C° 0 mm 7 mps 747 mmHg 24%
    20:00 +22°C° 0 mm 7 mps 748 mmHg 27%
    21:00 +21°C° 0 mm 7 mps 749 mmHg 29%
    22:00 +18°C° 0 mm 7 mps 749 mmHg 32%
    23:00 +17°C° 0 mm 7 mps 750 mmHg 33%
    Show more